Tracking 34747 objects as of 16-Jul-2026
HD Live streaming from Space Station
objects crossing your sky now

STARLINK-3555

Track STARLINK-3555 now!
10-day predictions
STARLINK-3555 is classified as:


NORAD ID: 51863
Int'l Code: 2022-022M
Perigee: 542.4 km
Apogee: 544.5 km
Inclination: 53.2 °
Period: 95.4 minutes
Semi major axis: 6914 km
RCS: Unknown
Launch date: March 3, 2022
Source: United States (US)
Launch site: AIR FORCE EASTERN TEST RANGE (AFETR)
Your satellite tracking list
Your tracking list is empty




NASA's NSSDC Master Catalog

Two Line Element Set (TLE):
1 51863U 22022M   26197.21173065  .00384024  00000-0  22176-1 0  9991
2 51863  53.1595 151.8879 0001452  93.1361 266.9797 15.09964095242515
Source of the keplerian elements: AFSPC